This is the latest recevied weather packets stored in our database for station/object N1UNH. If no packets are shown the sender has not sent any weather packets the latest 10 day(s).
| Time | Temp. | Humidity | Pressure | Rain* | Wind** | Luminosity | Snow |
|---|---|---|---|---|---|---|---|
| 1777960849 | 9.44° C | 75% | 1014.8 hPa | 0 mm | - | 0 W/m² | - |
| 1777960544 | 9.44° C | 75% | 1014.6 hPa | 0 mm | - | 0 W/m² | - |
| 1777960242 | 9.44° C | 75% | 1014.6 hPa | 0 mm | - | 0 W/m² | - |
| 1777959939 | 9.44° C | 75% | 1014.5 hPa | 0 mm | - | 0 W/m² | - |
| 1777959637 | 9.44° C | 75% | 1014.5 hPa | 0 mm | - | 0 W/m² | - |
| 1777959334 | 9.44° C | 75% | 1014.5 hPa | 0 mm | - | 0 W/m² | - |
| 1777959030 | 9.44° C | 75% | 1014.9 hPa | 0 mm | - | 0 W/m² | - |
| 1777958727 | 9.44° C | 75% | 1014.7 hPa | 0 mm | - | 0 W/m² | - |
| 1777958425 | 10° C | 74% | 1014.5 hPa | 0 mm | - | 0 W/m² | - |
| 1777958122 | 10° C | 74% | 1014.8 hPa | 0 mm | - | 0 W/m² | - |
| 1777957820 | 10° C | 73% | 1014.8 hPa | 0 mm | - | 0 W/m² | - |
| 1777957518 | 10° C | 73% | 1014.7 hPa | 0 mm | - | 0 W/m² | - |
| 1777957215 | 10° C | 74% | 1014.7 hPa | 0 mm | - | 0 W/m² | - |
| 1777956911 | 10° C | 71% | 1014.7 hPa | 0 mm | - | 0 W/m² | - |
| 1777956609 | 10.56° C | 73% | 1014.6 hPa | 0 mm | - | 0 W/m² | - |
| 1777956306 | 10.56° C | 72% | 1014.7 hPa | 0 mm | - | 0 W/m² | - |
| 1777956002 | 10.56° C | 71% | 1014.6 hPa | 0 mm | - | 0 W/m² | - |
| 1777955698 | 11.11° C | 69% | 1014.7 hPa | 0 mm | - | 0 W/m² | - |
| 1777955395 | 11.11° C | 69% | 1014.5 hPa | 0 mm | - | 0 W/m² | - |
| 1777955091 | 11.11° C | 70% | 1014.7 hPa | 0 mm | - | 0 W/m² | - |
| 1777954788 | 11.11° C | 69% | 1014.6 hPa | 0 mm | - | 0 W/m² | - |
| 1777954485 | 11.11° C | 69% | 1014.6 hPa | 0 mm | - | 0 W/m² | - |
| 1777954183 | 11.67° C | 66% | 1014.5 hPa | 0 mm | - | 0 W/m² | - |
| 1777953880 | 11.67° C | 66% | 1014.3 hPa | 0 mm | - | 0 W/m² | - |
| 1777953576 | 12.22° C | 65% | 1014.5 hPa | 0 mm | - | 0 W/m² | - |
* Rain latest hour (hover to see other rain measurements)
** Current wind speed in m/s (hover to see current wind gust speed)